DMSP 5D-2 F13 DEB, 40418

Orbit data source: Space-Track

DMSP 5D-2 F13 DEB, 40418 is space debris in SSO originally from a launch on Fri, 24 Mar 1995 UTC launched from the Air Force Western Test Range (AFWTR). Debris objects in space refer to the collection of defunct objects orbiting the Earth. Examples of debris include non-operational satellites, rocket bodies, and fragments generated from explosions, collisions, or faulty payload assembly.

Loading next visibility...
DMSP 5D-2 F13 DEB details
Identifier
40418, 1995-015AF
Orbit
SSO
Last TLE update10 hours ago
Origin
Flag of USUSAF SMC (US)
ManufacturerUnknown
MissionSpacecraft
Bus & MotorUnknown
MassUnknown
Launch date (UTC)
1995-03-24 (30 years ago)
Launch vehicleUnknown
Launch site
Air Force Western Test Range (AFWTR)
Object type
Payload
Rocket body
Debris
Shape & HBRUnknown
Radar Cross SectionSmall (<0.1 m²)

Expand to show TLE details & history

TLE from 10 hours ago
0 DMSP 5D-2 F13 DEB
1 40418U 95015AF  24361.02602417  .00006385  00000-0  25208-2 0  9996
2 40418  98.6907  20.3426 0008579 113.0099 247.1988 14.29359450511915
Epoch: 2024-12-26T00:37Z
Definitive object data (Epoch: 2024-12-26T00:37:28.488Z)
Latitude-0.00005°
Longitude-84.03743°
Altitude799.19 km
Speed7.453 km/s
True Right ascension01h 21m 22s
True Declination0° 00' 00"
Sunlit
Object was in daylight at TLE epoch
Visualization TLE readout
Latitude-22.29823°
Longitude-80.04816°
Altitude806.512 km
Speed7.447 km/s
Apparent Right ascension00h 05m 20s
Apparent Declination-33° 25' 39"
Sunlit
Object is in daylight
Visualization observer readout
Local Sidereal Time09:57:12
Azimuth274.066° WNW
Elevation-63.654°
Doppler factor1
Orbital elements
Apogee altitude797.168 km
Perigee altitude784.867 km
Semi-major axis7,169.155 km
Eccentricity0.0008579
Inclination98.6907°
RAAN20.3426°
Arg. of periapsis113.0099°
True anomaly247.10821°
Mean anomaly247.1988°
Eccentric anomaly247.1535°
Mean motion3.57554 °/min
BSTAR0.0025208
Orbital period100.68 mins
Loading maneuver chart data...

DMSP 5D-2 F13 DEB Visibility forecast

Observer location: undefined°, undefined

Span
Click to sort rows by Start time (UTC) header in descending order
Start Az.
Max El. time (UTC)
Max El. Az.
Max El.
End time (UTC)
End Az.
8 mins2024-12-26 14:38:59.465Z6.56° NNE2024-12-26 14:42:59.465Z261.843° W43.062°2024-12-26 14:46:59.465Z204.581° SW
6 mins2024-12-27 00:18:59.465Z96.961° ESE2024-12-27 00:20:59.465Z69.015° E19.274°2024-12-27 00:24:59.465Z17.876° NNE
8 mins2024-12-27 01:56:59.465Z192.053° SSW2024-12-27 01:59:59.465Z241.641° WSW36.364°2024-12-27 02:04:59.465Z333.263° NNW
|